KUIPER-00478

导读

KUIPER-00478(NORAD编号68875)是亚马逊柯伊伯项目(Project Kuiper)星座中的一颗低轨宽带通信卫星,作为该项目首批运营卫星之一,于2025年4月由联合发射联盟阿特拉斯V火箭发射入轨。该卫星是原型星的技术升级版,改进了相控阵天线、星间激光链路等关键系统,可支持100Gbps星间通信。它运行在低地球轨道,旨在为全球提供高速低延迟宽带互联网服务,是柯伊伯项目挑战SpaceX星链垄断、构建3200余颗卫星星座进程中的重要单元。

基本信息
目录编号:
68875
目录名称:
KUIPER-00478
国际标识:
2026-095M
轨道中心:
EARTH
卫星名称:
KUIPER-00478
卫星全名:
KUIPER-00478
卫星状态:
在轨 (已飞行130 天)
发射日期:
2026-04-28 UTC
国别 :
美国 (US)
星等 :
--
轨道信息
数据来源 国际轨道数据 AOE轨道数据
星历时间 2026-09-05T12:09:37+0800
8小时前
查看轨道信息
2026-09-03T23:00:00+0800
1天前
查看轨道信息
半长轴 7007.698km 7007.685km
偏心率 0.0000828 0.0001718
轨道倾角 51.903° 51.898°
近地点辐角 35.827° 15.651°
升交点赤经 239.468° 246.313°
平近点角 324.275° 10.260°
近地点 628.98km 628.344km
远地点 630.142km 630.752km
周期 97.302分钟 97.302分钟
每日圈数 14.799252 14.799291
详细信息
使用方式:
暂无
2D轨道图
3D轨道图
轨道高度分析图
轨道倾角分析图
轨道综合分析图
查看轨道综合分析图
交会数据列表
事件ID 空间交会对象 最接近时刻(TCA) 交会距离 交会风险概率(CRP) 交会风险指数(CRI) 操作
CDM_260906-151905-278806-887521
2026-09-06T
15:19:47+0000
0.802 km
远距离
2.525869E-5 中风险 0.63
CDM_260907-125100-164206-887523
2026-09-07T
12:51:52+0000
2.473 km
极远距离
1.425544E-6 低风险 0.38
CDM_260903-104104-007806-887524
2026-09-03T
10:41:03+0000
2.196 km
极远距离
1.402119E-6 低风险 0.38